Talkeetna, AK

2:16 AM AKST on February 22, 2017 (GMT -0900)
Talkeetna

Weather History for PATK - May, 2013

Change the Weather History Date:

Sunday, May 26, 2013

  Actual Average Record
Temperature  
Mean Temperature 53 °F -  
Max Temperature 69 °F 60 °F 80 °F (2006)
Min Temperature 37 °F 37 °F 28 °F (1964)
Degree Days  
Heating Degree Days 12    
Growing Degree Days 3 (Base 50)    
Moisture  
Dew Point 33 °F    
Average Humidity 44    
Maximum Humidity 82    
Minimum Humidity 18    
Precipitation  
Precipitation 0.00 in - - ()
Sea Level Pressure  
Sea Level Pressure 29.89 in    
Wind  
Wind Speed 4 mph (WSW)    
Max Wind Speed 13 mph    
Max Gust Speed 17 mph    
Visibility 10 miles    
Events      
Averages and records for this station are not official NWS values.
T = Trace of Precipitation, MM = Missing Value Source: NWS Daily Summary

Daily Weather History Graph

Daily Weather History Graph

Search for Another Location

Airport or City:

Trip Planner

Search our weather history database for the weather conditions in past years. The results will help you decide how hot, cold, wet, or windy it might be!

Date:

Astronomy

May. 26, 2013 Rise Set
Actual Time 4:34 AM AKDT 11:21 PM AKDT
Civil Twilight 2:42 AM AKDT 1:20 AM AKDT
Nautical Twilight Sun does not rise Sun does not rise
Astronomical Twilight Sun does not rise Sun does not rise
Moon 12:08 AM AKDT (5/26) 6:25 AM AKDT (5/26)
Length of Visible Light 22h 37m
Length of Day
18h 47m
Waning Gibbous, 96% of the Moon is Illuminated
May 26
Waning Gibbous
May 31
Last Quarter
Jun 8
New
Jun 16
First Quarter
Jun 23
Full

Hourly Weather History & Observations

Time (AKDT) Temp. Dew Point Humidity Pressure Visibility Wind Dir Wind Speed Gust Speed Precip Events Conditions
12:53 AM 54.0 °F 33.1 °F 45% 29.91 in 10.0 mi South 10.4 mph - N/A   Clear
1:53 AM 51.1 °F 33.1 °F 50% 29.93 in 10.0 mi Calm Calm - N/A   Clear
2:53 AM 43.0 °F 33.1 °F 68% 29.93 in 10.0 mi Calm Calm - N/A   Clear
3:53 AM 39.9 °F 33.1 °F 77% 29.93 in 10.0 mi Calm Calm - N/A   Clear
4:53 AM 37.9 °F 32.0 °F 79% 29.93 in 10.0 mi Calm Calm - N/A   Clear
5:53 AM 37.0 °F 32.0 °F 82% 29.94 in 10.0 mi Calm Calm - N/A   Clear
6:53 AM 42.1 °F 32.0 °F 67% 29.93 in 10.0 mi Calm Calm - N/A   Clear
7:53 AM 46.9 °F 32.0 °F 56% 29.93 in 10.0 mi Calm Calm - N/A   Clear
8:53 AM 51.1 °F 32.0 °F 48% 29.92 in 10.0 mi Calm Calm - N/A   Clear
9:53 AM 55.0 °F 33.1 °F 43% 29.91 in 10.0 mi West 3.5 mph - N/A   Clear
10:53 AM 57.9 °F 32.0 °F 37% 29.91 in 10.0 mi WSW 3.5 mph - N/A   Clear
11:53 AM 60.1 °F 32.0 °F 35% 29.90 in 10.0 mi Variable 3.5 mph - N/A   Partly Cloudy
12:53 PM 60.1 °F 32.0 °F 35% 29.88 in 10.0 mi Calm Calm - N/A   Overcast
1:53 PM 62.1 °F 33.1 °F 34% 29.87 in 10.0 mi WSW 4.6 mph - N/A   Overcast
2:53 PM 64.9 °F 33.1 °F 31% 29.86 in 10.0 mi Variable 4.6 mph - N/A   Scattered Clouds
3:53 PM 66.0 °F 33.1 °F 29% 29.86 in 10.0 mi NW 3.5 mph - N/A   Clear
4:53 PM 66.9 °F 33.1 °F 28% 29.85 in 10.0 mi West 3.5 mph - N/A   Clear
5:53 PM 69.1 °F 33.1 °F 26% 29.84 in 10.0 mi Calm Calm - N/A   Partly Cloudy
6:53 PM 69.1 °F 32.0 °F 25% 29.83 in 10.0 mi WNW 3.5 mph - N/A   Partly Cloudy
7:53 PM 68.0 °F 32.0 °F 26% 29.83 in 10.0 mi NNW 5.8 mph - N/A   Mostly Cloudy
8:53 PM 64.0 °F 35.1 °F 34% 29.86 in 10.0 mi South 12.7 mph 17.3 mph N/A   Overcast
9:53 PM 61.0 °F 36.0 °F 39% 29.87 in 10.0 mi South 9.2 mph - N/A   Overcast
10:53 PM 57.0 °F 39.0 °F 51% 29.88 in 10.0 mi South 4.6 mph - N/A   Clear
11:53 PM 55.9 °F 37.9 °F 51% 29.89 in 10.0 mi South 8.1 mph - N/A   Clear